Date,TemperatureHighF,TemperatureAvgF,TemperatureLowF,DewpointHighF,DewpointAvgF,DewpointLowF,HumidityHigh,HumidityAvg,HumidityLow,PressureMaxIn,PressureMinIn,WindSpeedMaxMPH,WindSpeedAvgMPH,GustSpeedMaxMPH,PrecipitationSumIn
2013-1-1,56.1,50.8,47.1,46.5,44.3,42.5,87,79,66,30.12,30.04,15,2,15,0.06
2013-1-2,57.0,50.6,44.4,48.4,44.5,40.3,88,80,68,30.28,30.10,10,1,10,0.06
2013-1-3,58.2,50.9,45.6,48.1,44.5,38.8,89,79,50,30.38,30.28,9,1,9,0.06
2013-1-4,57.9,51.0,44.7,41.5,37.7,31.0,77,62,37,30.31,30.03,10,1,10,0.00
2013-1-5,56.4,50.2,46.4,38.6,36.1,32.7,69,59,42,30.03,29.72,11,1,14,0.00
2013-1-6,50.0,45.7,40.8,38.5,35.7,31.1,79,68,58,29.86,29.66,22,4,22,0.00
2013-1-7,51.8,44.5,39.3,31.1,28.2,23.3,66,53,38,29.98,29.81,22,4,22,0.00
2013-1-8,42.6,36.4,33.6,32.5,27.3,21.7,86,70,44,30.16,29.96,16,4,16,0.12
2013-1-9,45.1,38.7,33.9,30.6,26.2,23.4,69,61,48,30.19,30.12,11,2,11,0.12
2013-1-10,49.8,43.8,35.4,35.7,30.5,23.0,72,60,10,30.15,30.00,10,1,10,0.00
2013-1-11,58.6,52.4,44.7,52.2,45.9,35.5,92,79,69,30.00,29.78,10,1,10,0.14
2013-1-12,58.6,50.7,45.1,48.1,43.2,39.5,89,76,57,30.01,29.78,16,1,16,0.00
2013-1-13,56.3,48.8,44.2,43.9,40.4,38.5,84,73,52,30.20,30.00,10,2,10,0.00
2013-1-14,57.9,51.3,46.9,48.6,44.0,40.3,81,76,66,30.25,30.18,11,2,11,0.00
2013-1-15,59.3,53.1,47.1,50.2,46.1,43.1,88,77,65,30.23,29.98,16,2,16,0.02
2013-1-16,58.6,54.4,50.3,51.7,48.5,30.0,91,81,72,29.99,29.63,25,6,25,1.33
2013-1-17,58.4,53.0,45.6,50.2,45.4,40.1,84,76,62,29.76,29.62,21,4,21,1.31
2013-1-18,57.7,52.9,46.0,50.7,46.4,39.2,88,79,69,29.62,29.42,26,5,26,1.31
2013-1-19,55.4,49.0,43.5,40.5,38.3,36.0,82,67,49,29.82,29.49,20,3,20,1.31
2013-1-20,61.7,54.8,47.3,52.6,46.5,39.3,83,74,59,29.92,29.81,10,2,10,1.31
2013-1-21,63.1,57.2,51.0,51.8,48.5,43.7,88,74,51,29.89,29.63,21,3,21,1.31
2013-1-22,61.5,55.9,49.6,51.4,47.1,44.3,86,73,54,29.77,29.64,13,2,13,1.31
2013-1-23,60.0,54.8,51.6,46.3,41.9,38.6,74,62,45,29.93,29.76,16,2,16,1.31
2013-1-24,62.0,53.8,47.1,52.3,46.6,41.8,89,77,63,29.92,29.56,22,4,22,0.61
2013-1-25,58.1,49.9,45.1,48.5,44.4,40.2,89,81,61,29.62,29.46,26,3,26,0.83
2013-1-26,55.9,49.5,46.5,47.1,44.3,42.2,87,82,21,29.61,29.41,11,2,11,0.39
2013-1-27,52.5,47.3,45.1,43.2,41.3,39.0,87,80,63,29.90,29.61,18,2,18,0.13
2013-1-28,54.8,48.9,45.5,43.3,40.7,38.0,81,73,61,29.96,29.86,14,2,14,0.13
2013-1-29,49.8,46.5,43.3,41.3,39.7,36.9,83,77,70,30.06,29.95,13,2,13,0.00
2013-1-30,56.8,48.7,41.1,38.7,33.5,25.2,83,59,32,30.05,29.91,14,1,14,0.00
2013-1-31,59.5,51.6,43.8,45.2,38.1,31.2,73,60,49,29.99,29.81,19,2,19,0.00
2013-2-1,57.3,51.4,44.4,39.4,34.6,27.3,72,53,11,30.03,29.87,17,2,17,0.00
2013-2-2,61.7,54.1,46.2,49.8,45.4,39.1,86,73,58,29.87,29.74,20,2,20,0.00
2013-2-3,64.2,58.9,55.9,53.1,51.9,49.8,86,78,62,29.89,29.75,29,7,29,0.00
2013-2-4,65.1,59.2,55.0,53.7,51.6,49.1,86,76,60,29.96,29.88,12,2,12,0.00
2013-2-5,61.8,57.1,51.9,52.2,48.1,43.5,85,72,59,29.96,29.81,19,3,19,0.00
2013-2-6,60.9,54.9,48.7,50.9,46.7,42.8,83,74,60,29.81,29.64,13,2,13,0.00
2013-2-7,60.4,54.3,50.7,50.7,47.1,43.9,85,77,65,29.68,29.48,26,6,26,0.47
2013-2-8,56.4,51.6,47.1,46.3,41.8,19.2,82,69,32,29.71,29.49,15,3,15,0.00
2013-2-9,58.1,50.3,43.7,42.4,39.6,37.6,84,68,47,29.84,29.71,22,2,22,0.00
2013-2-10,58.2,51.3,45.5,40.9,37.9,35.8,78,61,45,29.84,29.75,14,2,14,0.00
2013-2-11,55.2,48.6,44.4,37.8,34.7,31.4,74,59,42,30.01,29.73,14,2,14,0.00
2013-2-12,58.8,51.0,42.4,46.8,40.1,33.3,76,67,43,30.04,29.97,12,2,12,0.00
2013-2-13,56.1,51.1,46.4,47.5,45.1,42.4,90,80,62,29.97,29.85,22,3,22,1.49
2013-2-14,51.4,48.6,46.7,47.3,44.6,43.2,90,86,82,29.88,29.64,17,2,17,0.45
2013-2-15,52.1,47.8,45.3,45.8,43.0,40.1,89,84,72,29.99,29.64,19,2,19,0.37
2013-2-16,55.2,49.1,44.6,45.2,42.4,39.9,85,78,67,30.03,29.96,14,3,14,0.10
2013-2-17,46.2,45.0,42.4,42.7,40.7,37.0,89,85,79,30.02,29.91,18,4,18,0.59
2013-2-18,53.4,46.0,40.8,40.2,37.8,36.0,84,74,52,30.04,29.99,14,2,14,0.00
2013-2-19,54.3,48.8,44.4,50.2,43.2,21.9,90,81,32,30.01,29.73,10,1,10,0.24
2013-2-20,57.9,50.5,44.2,42.5,38.2,23.0,81,64,40,30.03,29.78,12,2,12,0.24
2013-2-21,54.3,50.3,46.5,46.9,42.7,38.0,83,75,71,30.02,29.69,15,2,15,0.04
2013-2-22,55.0,51.9,49.2,50.8,47.7,44.9,91,86,77,29.70,29.53,21,4,21,2.47
2013-2-23,61.8,53.7,47.1,51.5,46.9,44.2,91,78,59,30.00,29.69,11,1,11,0.00
2013-2-24,66.0,57.4,50.9,54.2,48.5,46.0,89,73,49,30.06,29.99,16,2,16,0.00
2013-2-25,66.0,60.1,53.7,54.0,51.3,48.4,86,73,59,30.05,29.95,17,4,17,0.00
2013-2-26,65.1,59.3,53.4,52.5,47.2,39.3,82,65,41,30.01,29.93,14,3,14,0.00
2013-2-27,60.0,54.8,50.5,44.0,39.6,34.5,71,57,39,30.02,29.90,21,3,21,0.00
2013-2-28,53.0,49.0,46.0,41.1,38.9,37.1,77,68,61,30.16,30.01,19,4,19,0.00
2013-3-1,57.9,49.3,42.4,40.0,37.1,33.7,74,63,46,30.14,29.97,11,2,11,0.00
2013-3-2,58.2,50.3,44.9,45.7,40.9,38.4,81,70,55,29.98,29.84,18,2,18,0.00
2013-3-3,55.0,50.6,46.4,45.9,41.4,36.4,88,71,59,29.93,29.73,24,7,24,0.37
2013-3-4,59.1,49.7,42.9,44.3,39.2,36.8,79,68,46,30.14,29.92,12,1,12,0.00
2013-3-5,55.5,48.6,45.3,41.7,37.7,33.9,76,66,52,30.38,30.13,16,3,16,0.00
2013-3-6,57.9,50.3,44.4,39.7,35.9,31.0,68,58,37,30.36,30.11,21,4,21,0.00
2013-3-7,56.3,52.5,50.5,50.5,45.5,39.6,86,77,65,30.11,29.89,8,1,8,0.16
2013-3-8,62.9,55.6,49.8,51.6,48.9,28.7,88,79,62,29.89,29.81,12,1,12,0.02
2013-3-9,67.6,59.1,51.4,53.5,50.3,28.6,90,74,57,29.83,29.68,13,2,13,0.00
2013-3-10,67.6,58.6,52.8,50.9,48.2,44.6,82,69,44,29.79,29.69,14,2,14,0.00
2013-3-11,69.6,61.4,53.7,55.2,51.3,27.9,86,70,28,29.69,29.54,14,2,14,0.00
2013-3-12,68.7,62.5,56.3,46.5,43.6,40.3,67,51,36,29.69,29.55,15,4,15,0.00
2013-3-13,66.7,59.8,52.3,52.0,46.0,42.2,78,61,43,29.71,29.65,15,3,15,0.00
2013-3-14,69.4,62.3,57.2,57.1,48.1,35.3,82,61,36,29.68,29.27,22,6,22,0.00
2013-3-15,61.8,56.4,49.8,44.2,40.7,37.3,63,56,46,29.57,29.34,22,6,22,0.00
2013-3-16,55.5,49.9,45.3,42.2,37.0,34.2,70,61,46,29.96,29.56,12,2,12,0.02
2013-3-17,54.5,48.1,42.9,36.2,34.3,30.5,73,59,41,30.14,29.96,10,2,10,0.00
2013-3-18,55.4,49.9,43.5,46.0,40.1,34.4,79,69,53,30.15,29.91,13,2,13,0.00
2013-3-19,63.6,58.2,52.1,52.3,49.5,45.8,81,73,63,29.92,29.75,19,4,19,0.00
2013-3-20,68.1,59.9,50.7,54.6,49.0,46.7,86,69,52,29.87,29.78,13,2,13,0.00
2013-3-21,65.6,61.3,57.3,55.2,51.9,28.2,81,72,60,29.78,29.51,15,3,15,0.00
2013-3-22,64.9,58.1,51.8,44.8,37.5,24.1,66,47,35,29.73,29.50,25,6,25,0.00
2013-3-23,64.9,55.8,47.6,39.2,29.1,19.5,60,38,19,29.94,29.73,15,3,15,0.00
2013-3-24,66.5,57.9,49.1,49.5,44.5,39.0,74,61,48,29.98,29.89,14,2,14,0.00
2013-3-25,65.1,59.9,54.8,53.3,50.4,46.6,81,71,59,29.91,29.57,20,5,20,0.00
2013-3-26,67.6,60.5,54.8,52.5,47.8,43.9,81,64,47,29.61,29.48,22,4,22,0.00
2013-3-27,68.1,60.2,53.7,51.5,46.9,42.7,70,62,49,29.80,29.61,20,3,20,0.00
2013-3-28,65.6,58.8,54.3,52.6,48.6,36.8,83,69,60,30.02,29.80,12,2,12,0.10
2013-3-29,67.8,59.6,52.3,52.8,50.4,47.3,85,72,55,30.02,29.95,15,2,15,0.10
2013-3-30,75.9,65.1,55.9,55.6,51.1,48.1,81,62,39,29.96,29.80,16,2,16,0.10
2013-3-31,72.6,63.2,57.7,57.1,52.5,42.2,76,68,54,29.82,29.70,20,2,20,0.10
2013-4-1,72.1,63.9,55.2,53.7,43.9,33.6,81,52,25,29.84,29.72,24,3,24,0.10
2013-4-2,71.2,64.5,56.8,52.3,46.5,18.3,67,53,36,29.84,29.54,14,2,14,0.10
2013-4-3,70.7,63.9,58.6,56.1,46.5,39.8,83,55,35,29.62,29.43,22,5,22,0.10
2013-4-4,71.2,62.2,54.8,45.3,43.1,32.0,66,51,33,29.89,29.62,24,4,24,0.10
2013-4-5,72.6,63.8,56.1,51.0,43.8,32.5,64,50,23,29.91,29.76,19,3,19,0.00
2013-4-6,73.9,65.2,56.4,54.6,49.6,46.5,73,58,41,29.77,29.67,10,1,10,0.00
2013-4-7,69.0,64.0,59.7,58.1,51.6,45.7,83,64,51,29.68,29.27,24,5,24,0.04
2013-4-8,61.3,58.5,55.2,50.7,47.6,46.1,78,67,59,29.85,29.37,9,2,9,0.04
2013-4-9,69.4,60.4,52.1,49.2,46.1,42.9,80,61,40,29.95,29.84,22,3,22,0.04
2013-4-10,70.5,62.3,53.4,49.3,46.8,43.4,78,58,39,29.96,29.86,13,2,13,0.00
2013-4-11,72.5,63.3,54.3,48.4,46.2,41.7,75,55,34,29.99,29.87,11,2,11,0.00
2013-4-12,73.5,64.1,55.2,50.3,46.8,42.7,71,55,39,30.04,29.95,14,2,14,0.00
2013-4-13,76.2,65.1,56.4,50.3,46.9,43.4,68,53,36,30.06,30.01,13,2,13,0.00
2013-4-14,75.9,66.4,59.9,53.4,48.4,44.2,70,54,33,30.06,29.99,22,4,22,0.00
2013-4-15,63.5,58.6,53.9,47.9,43.8,38.6,72,58,44,30.06,29.97,18,4,18,0.00
2013-4-16,63.6,56.6,51.0,45.3,42.5,38.5,77,60,42,30.04,29.96,22,5,22,0.04
2013-4-17,65.1,58.7,53.7,41.2,34.8,28.0,60,42,26,30.06,29.99,22,5,22,0.00
2013-4-18,62.9,57.5,52.3,38.5,32.3,27.7,57,39,27,30.05,29.97,24,5,24,0.00
2013-4-19,62.4,55.9,50.7,46.9,37.2,31.9,69,49,41,29.98,29.90,18,3,18,0.00
2013-4-20,64.7,57.3,51.0,45.5,39.9,36.7,65,53,40,30.00,29.90,18,3,18,0.00
2013-4-21,70.8,61.5,51.4,45.1,39.9,36.7,64,46,31,30.00,29.91,15,2,15,0.00
2013-4-22,71.7,63.0,54.6,44.6,42.3,39.4,61,48,33,30.04,29.95,12,2,12,0.00
2013-4-23,71.4,64.0,56.8,48.2,44.9,40.2,61,50,41,30.19,30.04,16,4,16,0.00
2013-4-24,77.3,67.3,56.8,49.3,42.4,34.0,65,43,22,30.28,30.18,17,3,17,0.00
2013-4-25,80.4,71.6,62.4,49.0,45.4,41.1,50,39,31,30.25,30.12,17,4,17,0.00
2013-4-26,82.9,72.9,60.8,48.4,42.3,36.7,52,35,23,30.14,29.96,14,2,14,0.00
2013-4-27,81.5,73.2,62.9,49.3,44.5,41.5,55,37,27,29.97,29.87,16,3,16,0.00
2013-4-28,81.1,71.5,61.8,53.2,45.2,38.8,62,40,25,30.02,29.90,16,2,16,0.00
2013-4-29,84.5,73.7,62.2,48.7,43.6,39.5,50,35,25,30.07,30.00,13,2,13,0.00
2013-4-30,85.4,76.3,65.8,51.1,43.8,38.3,43,32,26,30.07,30.00,16,4,16,0.00
2013-5-1,85.2,77.6,67.2,52.9,47.3,41.0,49,35,26,30.04,29.91,20,4,20,0.00
2013-5-2,85.4,77.8,70.8,49.5,43.2,36.8,41,30,21,29.93,29.87,28,7,28,0.00
2013-5-3,86.1,75.8,67.2,57.7,49.7,41.8,50,40,30,29.90,29.80,16,3,16,0.00
2013-5-4,86.7,75.7,67.8,57.1,53.9,51.4,60,48,33,29.94,29.82,13,2,13,0.00
2013-5-5,87.0,77.4,68.5,55.6,52.4,50.0,55,43,31,30.03,29.90,12,2,12,0.00
2013-5-6,84.7,77.3,70.8,57.5,52.8,28.7,55,43,19,30.04,29.95,18,5,18,0.00
2013-5-7,82.0,74.7,69.0,53.4,51.4,48.4,55,45,35,29.97,29.84,20,5,20,0.00
2013-5-8,75.7,68.9,63.3,59.4,53.8,48.6,73,59,46,29.88,29.78,14,2,14,0.00
2013-5-9,73.5,65.7,62.2,58.4,54.6,53.0,73,67,55,29.87,29.79,22,5,22,0.00
2013-5-10,72.8,66.8,61.8,57.3,53.9,21.4,77,64,19,29.87,29.79,20,3,20,0.00
2013-5-11,80.0,70.6,62.2,57.9,53.6,50.1,70,56,42,29.85,29.72,15,3,15,0.00
2013-5-12,80.4,72.7,67.8,57.8,54.9,51.8,67,54,39,29.73,29.62,14,3,14,0.00
2013-5-13,74.1,66.8,62.4,61.8,52.9,49.6,96,62,44,29.67,29.62,12,2,12,0.17
2013-5-14,71.2,64.6,60.6,56.3,52.4,49.8,84,65,49,29.82,29.64,18,2,18,0.28
2013-5-15,78.4,69.4,59.3,56.2,52.4,49.4,75,56,40,29.86,29.79,14,2,14,0.00
2013-5-16,78.0,69.3,62.9,57.5,54.4,47.4,75,60,37,29.89,29.81,16,2,16,0.00
2013-5-17,79.1,70.5,64.2,61.2,56.1,52.2,75,61,43,29.91,29.79,12,2,12,0.00
2013-5-18,87.9,75.5,65.1,62.4,58.7,26.0,77,58,19,29.96,29.86,13,2,13,0.00
2013-5-19,90.3,78.3,69.6,62.7,58.1,54.3,68,52,31,29.95,29.86,15,2,15,0.00
2013-5-20,90.3,80.3,71.0,61.8,59.5,27.4,64,50,19,29.91,29.84,10,2,10,0.00
2013-5-21,90.1,80.8,71.4,60.5,55.9,50.8,60,44,28,29.91,29.83,16,2,16,0.00
2013-5-22,85.8,78.5,70.8,58.5,55.2,46.5,59,46,26,29.88,29.71,18,3,18,0.00
2013-5-23,85.6,78.3,71.4,61.7,53.8,33.5,59,43,19,29.71,29.56,23,6,23,0.00
2013-5-24,79.8,73.6,66.7,54.4,50.5,47.6,54,45,37,29.89,29.68,22,6,22,0.00
2013-5-25,82.0,74.3,65.8,54.5,50.3,33.7,54,43,19,29.92,29.86,21,5,21,0.00
2013-5-26,83.3,75.2,66.2,52.9,49.8,45.3,58,42,28,29.93,29.82,16,3,16,0.00
2013-5-27,80.4,72.6,65.4,49.6,42.9,35.4,47,35,21,29.94,29.87,14,4,14,0.00
2013-5-28,79.1,71.6,63.3,57.0,51.4,47.1,61,49,38,29.93,29.75,13,2,13,0.00
2013-5-29,85.8,76.2,70.5,61.5,52.7,41.8,59,44,34,29.76,29.55,16,3,16,0.00
2013-5-30,86.7,77.6,69.9,60.3,54.2,46.8,64,46,28,29.71,29.63,17,4,17,0.00
2013-5-31,82.9,75.7,68.5,54.8,48.6,40.2,55,39,28,29.76,29.63,20,5,20,0.00
2013-6-1,76.6,69.2,63.1,57.9,47.8,39.8,69,47,30,29.84,29.75,15,3,15,0.00
2013-6-2,78.9,70.1,63.3,56.8,51.9,43.4,76,54,33,29.81,29.64,22,4,22,0.04
2013-6-3,80.6,71.4,63.1,54.8,50.2,46.2,63,48,31,29.86,29.80,15,3,15,0.00
2013-6-4,82.7,74.4,66.3,56.4,52.3,47.2,63,47,29,29.86,29.78,21,4,21,0.00
2013-6-5,81.6,74.4,66.5,56.2,51.3,45.2,61,46,29,29.92,29.85,14,3,14,0.00
2013-6-6,80.0,73.9,66.0,77.6,56.6,32.9,94,56,19,29.99,29.90,12,2,12,0.00
2013-6-7,80.6,74.4,69.6,58.6,54.1,49.4,63,50,35,29.97,29.81,10,2,10,0.00
2013-6-8,82.0,73.3,68.7,63.1,58.7,54.8,77,61,42,29.84,29.78,21,3,21,0.06
2013-6-9,84.3,73.8,64.9,61.9,58.3,55.6,76,60,42,29.92,29.84,14,2,14,0.00
2013-6-10,86.7,77.2,67.8,61.4,58.3,27.6,68,53,19,29.93,29.80,13,3,13,0.00
2013-6-11,88.3,79.3,70.1,63.2,57.1,26.3,73,49,19,29.81,29.60,12,3,12,0.04
2013-6-12,83.1,73.1,64.5,62.8,55.4,50.9,79,56,36,29.75,29.63,16,2,16,0.41
2013-6-13,74.1,69.4,65.4,59.9,58.1,55.7,80,68,55,29.82,29.72,18,2,18,0.00
2013-6-14,77.7,71.2,65.4,63.5,58.6,56.9,80,65,51,29.90,29.80,13,2,13,0.04
2013-6-15,85.2,75.7,66.0,63.0,58.5,53.2,75,56,38,29.91,29.86,18,2,18,0.00
2013-6-16,91.7,79.5,68.3,64.9,59.8,50.5,74,53,25,29.94,29.89,12,2,12,0.00
2013-6-17,91.2,82.0,71.2,64.0,58.6,54.8,67,46,32,29.95,29.91,16,3,16,0.00
2013-6-18,89.4,83.2,77.1,61.6,57.6,54.5,52,42,33,29.95,29.90,23,5,23,0.00
2013-6-19,89.9,83.5,76.2,59.4,57.0,53.5,52,41,32,29.92,29.84,22,5,22,0.00
2013-6-20,91.0,84.3,78.4,58.9,55.6,52.2,48,38,31,29.94,29.82,26,8,26,0.00
2013-6-21,87.6,81.5,76.1,59.2,56.4,53.0,50,43,36,29.94,29.87,22,6,22,0.00
2013-6-22,91.2,83.4,73.2,55.4,50.6,39.1,50,33,19,29.91,29.82,21,4,21,0.00
2013-6-23,95.1,84.3,73.9,63.7,56.2,40.9,49,39,30,29.85,29.76,16,2,16,0.00
2013-6-24,96.6,86.4,76.8,62.0,58.2,52.0,57,40,27,29.79,29.73,14,3,14,0.00
2013-6-25,95.1,85.1,76.4,60.3,57.5,54.4,53,40,27,29.78,29.73,16,2,16,0.00
2013-6-26,93.9,84.2,75.7,66.9,61.1,53.6,57,46,33,29.86,29.76,26,3,26,0.00
2013-6-27,89.0,81.8,75.7,65.4,62.1,58.1,63,52,37,29.89,29.83,18,3,18,0.00
2013-6-28,86.9,80.0,73.5,66.4,62.5,59.2,64,56,40,29.89,29.84,15,2,15,0.00
2013-6-29,89.4,80.6,72.5,64.0,59.2,49.1,70,50,32,29.89,29.73,18,3,18,0.00
2013-6-30,86.0,77.4,72.1,57.6,52.7,27.6,57,43,30,29.84,29.72,14,4,14,0.00
2013-7-1,86.3,78.1,69.8,59.9,53.0,27.9,58,43,19,29.98,29.84,15,3,15,0.00
2013-7-2,87.0,78.9,70.7,60.8,55.7,49.2,65,46,28,29.99,29.92,15,3,15,0.00
2013-7-3,86.1,78.6,71.7,56.0,53.0,50.0,52,42,34,29.95,29.85,18,4,18,0.00
2013-7-4,86.3,79.6,71.4,58.1,53.0,48.8,48,40,34,29.90,29.83,21,4,21,0.00
2013-7-5,85.8,78.8,72.1,61.6,54.1,27.8,51,43,19,29.89,29.83,22,3,22,0.00
2013-7-6,85.1,79.6,74.4,63.3,58.1,54.3,62,48,39,29.87,29.81,21,4,21,0.00
2013-7-7,87.4,81.2,75.2,61.9,59.8,56.5,60,49,41,29.92,29.81,23,7,23,0.00
2013-7-8,90.1,83.4,75.7,59.7,56.1,53.3,53,40,31,29.95,29.90,24,6,24,0.00
2013-7-9,90.5,84.0,78.0,62.3,57.7,53.6,48,41,32,29.95,29.81,22,5,22,0.00
2013-7-10,89.4,82.6,76.2,62.2,59.0,52.5,58,46,34,29.84,29.71,18,5,18,0.00
2013-7-11,90.3,82.9,75.5,61.1,56.8,52.4,52,41,33,29.82,29.73,15,3,15,0.00
2013-7-12,92.3,84.0,75.9,62.3,58.9,54.2,59,43,33,29.89,29.80,10,2,10,0.00
2013-7-13,90.1,83.4,76.8,63.1,59.9,54.6,54,45,37,29.89,29.84,16,3,16,0.00
2013-7-14,90.8,82.9,76.2,61.5,57.1,55.0,52,42,31,29.89,29.82,18,3,18,0.00
2013-7-15,89.7,82.0,75.9,59.1,55.7,53.2,52,41,33,29.89,29.82,20,4,20,0.00
2013-7-16,87.8,82.3,75.2,59.0,55.8,52.8,53,41,35,29.91,29.84,22,5,22,0.00
2013-7-17,80.7,76.9,73.9,61.0,57.3,30.6,62,51,19,29.95,29.90,23,5,23,0.00
2013-7-18,84.7,78.1,73.2,57.7,54.8,50.2,57,45,32,29.99,29.92,23,6,23,0.00
2013-7-19,85.6,79.3,73.7,56.0,52.6,47.3,50,40,31,29.98,29.88,22,5,22,0.00
2013-7-20,88.3,81.0,71.9,58.5,52.7,46.9,54,38,27,29.89,29.79,18,4,18,0.00
2013-7-21,91.5,83.7,73.4,57.3,54.4,49.3,51,37,28,29.86,29.80,18,4,18,0.00
2013-7-22,83.8,79.2,75.0,63.0,57.8,52.4,64,49,37,29.87,29.81,22,5,22,0.00
2013-7-23,86.3,78.6,72.3,60.7,52.4,44.4,57,41,25,29.86,29.81,20,3,20,0.00
2013-7-24,92.8,82.9,71.9,53.3,50.1,47.7,44,33,22,29.89,29.84,17,3,17,0.00
2013-7-25,96.4,85.9,74.8,58.3,52.2,47.0,48,33,19,29.91,29.83,30,2,30,0.00
2013-7-26,96.6,87.2,76.6,57.3,53.5,50.8,47,32,24,29.87,29.80,14,2,14,0.00
2013-7-27,91.7,85.6,80.9,59.1,54.9,51.5,39,35,29,29.90,29.81,20,5,20,0.00
2013-7-28,91.2,84.3,78.0,67.3,55.7,51.8,51,38,31,29.97,29.89,20,5,20,0.00
2013-7-29,93.3,85.3,78.0,57.5,54.2,51.0,46,35,25,29.98,29.89,22,4,22,0.00
2013-7-30,98.4,88.7,78.2,64.9,58.4,52.3,48,37,27,29.90,29.73,19,2,19,0.00
2013-7-31,94.8,87.9,81.1,66.5,61.5,56.1,47,41,35,29.79,29.70,22,6,22,0.00
2013-8-1,88.1,82.9,78.6,66.9,60.6,56.0,65,48,38,29.91,29.78,22,6,22,0.00
2013-8-2,88.1,82.6,76.8,62.1,57.7,52.3,56,43,33,29.93,29.89,22,5,22,0.00
2013-8-3,90.3,83.7,77.7,60.8,56.0,51.7,51,39,31,29.93,29.88,19,4,19,0.00
2013-8-4,93.7,85.9,78.6,60.3,55.3,51.2,47,36,24,29.92,29.86,22,4,22,0.00
2013-8-5,87.6,82.1,77.0,60.9,53.8,47.4,51,38,26,29.94,29.89,29,7,29,0.00
2013-8-6,87.0,81.4,76.6,56.0,53.0,47.6,46,38,27,29.91,29.84,29,7,29,0.00
2013-8-7,87.9,82.4,77.5,55.5,53.4,49.2,45,37,28,29.91,29.84,23,6,23,0.00
2013-8-8,91.5,84.0,78.0,59.8,53.2,48.7,45,35,24,29.93,29.85,23,7,23,0.00
2013-8-9,92.6,84.1,77.5,60.4,55.2,49.4,50,38,27,29.91,29.79,19,4,19,0.00
2013-8-10,94.2,84.9,76.6,68.7,60.6,53.1,65,45,27,29.79,29.63,13,3,13,0.00
2013-8-11,89.0,83.4,78.6,67.6,56.8,47.3,65,42,25,29.83,29.65,24,5,24,0.00
2013-8-12,89.7,84.0,76.8,62.3,55.3,51.9,53,38,28,29.90,29.82,23,4,23,0.00
2013-8-13,92.1,85.2,76.6,58.3,54.4,49.4,48,36,27,29.89,29.83,23,4,23,0.00
2013-8-14,92.8,85.4,77.7,58.6,53.1,46.9,50,34,22,29.84,29.79,23,4,23,0.00
2013-8-15,93.3,85.4,78.0,60.2,55.8,51.4,47,37,25,29.86,29.78,22,5,22,0.00
2013-8-16,87.0,82.6,76.8,65.3,62.6,57.2,63,51,44,29.86,29.81,24,6,24,0.00
2013-8-17,87.8,81.8,76.6,65.2,63.1,60.6,66,54,42,29.89,29.81,24,8,24,0.00
2013-8-18,89.4,83.0,75.9,61.1,55.4,51.1,51,39,30,29.95,29.87,23,4,23,0.00
2013-8-19,92.1,83.2,75.5,60.8,54.3,49.9,47,37,28,29.92,29.85,21,3,21,0.00
2013-8-20,92.1,83.9,77.0,58.8,54.3,47.7,51,38,22,29.88,29.81,24,6,24,0.00
2013-8-21,87.2,81.7,76.2,60.7,57.0,49.9,52,43,36,29.87,29.82,22,5,22,0.00
2013-8-22,86.3,79.9,74.3,63.6,59.0,55.3,59,49,38,29.85,29.79,17,5,17,0.00
2013-8-23,87.8,81.7,75.5,61.5,55.6,48.2,59,42,29,29.91,29.82,16,3,16,0.00
2013-8-24,90.5,82.3,73.2,59.2,53.5,48.4,49,38,27,29.91,29.84,14,2,14,0.00
2013-8-25,91.2,82.7,74.8,63.0,58.1,55.0,54,44,32,29.86,29.80,14,2,14,0.00
2013-8-26,93.5,83.4,74.4,64.5,58.5,55.8,57,44,31,29.87,29.81,14,2,14,0.00
2013-8-27,95.1,84.2,75.9,66.8,60.4,56.0,60,46,28,29.87,29.80,17,2,17,0.00
2013-8-28,98.2,87.6,77.9,64.7,61.3,56.0,61,43,25,29.85,29.77,21,2,21,0.00
2013-8-29,95.1,86.4,78.9,65.5,61.4,55.5,56,44,27,29.88,29.81,14,2,14,0.00
2013-8-30,91.7,84.4,78.9,67.0,60.6,55.5,66,46,31,29.91,29.81,16,2,16,0.00
2013-8-31,85.1,79.6,76.1,66.8,58.2,51.5,66,49,36,29.96,29.87,21,5,21,0.00
2013-9-1,84.3,78.2,71.9,61.4,53.3,43.7,65,43,31,30.03,29.95,21,4,21,0.00
2013-9-2,87.0,79.0,71.9,60.8,50.6,40.9,59,38,26,30.05,29.96,16,3,16,0.00
2013-9-3,88.7,79.6,71.4,65.8,60.2,56.5,63,52,37,30.05,29.93,12,2,12,0.00
2013-9-4,84.9,78.5,71.4,61.7,57.7,53.9,60,49,36,30.08,29.96,22,5,22,0.00
2013-9-5,83.4,75.5,68.1,56.6,51.5,47.8,62,44,32,30.08,29.94,12,2,12,0.00
2013-9-6,85.6,77.5,69.6,64.7,58.5,53.1,63,52,39,29.95,29.85,15,2,15,0.00
2013-9-7,82.5,77.1,72.8,65.0,61.3,57.4,69,59,44,29.99,29.90,8,1,8,0.00
2013-9-8,86.3,77.7,70.8,59.5,56.0,47.4,67,48,34,30.08,29.98,22,4,22,0.00
2013-9-9,83.3,76.6,70.3,54.9,51.1,47.2,56,41,34,30.11,30.04,20,4,20,0.00
2013-9-10,87.2,78.0,69.9,62.8,56.5,47.3,61,48,37,30.07,29.96,16,2,16,0.00
2013-9-11,89.9,80.8,71.6,66.3,61.5,56.2,66,53,39,30.00,29.91,13,2,13,0.00
2013-9-12,93.0,83.0,74.1,66.8,62.4,57.2,68,51,31,29.94,29.88,14,2,14,0.00
2013-9-13,91.5,82.6,75.7,66.2,63.0,59.2,67,53,36,29.92,29.86,16,3,16,0.00
2013-9-14,85.8,78.8,73.0,61.5,55.0,42.1,56,45,22,29.99,29.89,13,3,13,0.00
2013-9-15,85.6,76.6,69.9,58.9,51.5,20.0,64,44,14,29.97,29.85,16,2,16,0.00
2013-9-16,81.8,75.9,70.3,64.5,59.0,52.4,67,56,41,29.87,29.62,12,2,12,0.00
2013-9-17,84.0,76.5,68.7,63.3,58.8,56.6,69,55,40,29.69,29.62,15,3,15,0.00
2013-9-18,87.0,79.2,72.6,63.0,57.4,48.6,66,49,29,29.65,29.58,20,4,20,0.00
2013-9-19,85.2,77.1,69.6,62.8,57.8,55.0,65,52,37,29.73,29.64,14,2,14,0.00
2013-9-20,84.0,76.4,70.3,63.1,59.5,53.9,70,57,37,29.91,29.72,18,2,18,0.00
2013-9-21,79.3,72.9,68.5,63.5,59.3,56.9,77,63,49,30.01,29.90,15,4,15,0.00
2013-9-22,75.5,70.5,65.6,57.5,53.3,50.2,63,55,44,30.04,29.99,18,4,18,0.00
2013-9-23,75.7,69.4,64.2,53.5,50.1,46.6,65,51,39,30.02,29.89,17,3,17,0.00
2013-9-24,80.7,71.8,63.1,59.7,53.9,49.3,67,54,35,29.92,29.86,11,2,11,0.00
2013-9-25,83.1,74.0,65.1,65.2,58.7,52.6,79,61,36,29.99,29.91,12,2,12,0.00
2013-9-26,83.4,75.2,67.8,65.0,61.2,55.8,82,63,40,29.99,29.86,14,2,14,0.00
2013-9-27,85.8,76.2,67.6,62.7,58.2,41.3,74,56,32,29.89,29.82,12,2,12,0.00
2013-9-28,84.0,75.0,67.6,62.2,60.7,52.3,75,62,37,29.91,29.85,15,2,15,0.00
2013-9-29,84.7,76.4,68.5,64.5,61.7,59.0,74,61,46,29.91,29.84,12,2,12,0.00
2013-9-30,84.0,76.7,69.6,66.9,63.7,60.3,82,65,48,29.86,29.63,16,2,16,0.00
2013-10-1,80.2,73.4,66.3,69.1,62.5,30.2,88,70,20,29.64,29.50,21,4,21,0.94
2013-10-2,74.4,68.5,62.0,60.1,55.9,53.1,74,64,50,29.91,29.59,22,5,22,0.00
2013-10-3,63.3,59.9,57.3,53.8,49.1,44.5,82,68,56,30.20,29.91,18,6,18,0.10
2013-10-4,60.6,57.0,55.0,46.7,44.2,16.9,72,62,20,30.29,30.19,21,5,21,0.10
2013-10-5,62.0,56.7,53.4,44.5,42.8,41.0,70,60,49,30.29,30.20,15,4,15,0.00
2013-10-6,64.5,57.4,51.9,46.7,44.6,42.3,73,63,48,30.28,30.19,18,4,18,0.00
2013-10-7,67.6,60.5,54.6,48.8,46.5,44.2,74,61,47,30.30,30.23,22,5,22,0.00
2013-10-8,72.8,64.9,58.8,52.9,49.2,44.8,64,57,42,30.28,30.20,18,4,18,0.00
2013-10-9,74.8,66.5,58.4,56.0,49.7,42.5,73,56,34,30.23,30.10,10,2,10,0.00
2013-10-10,69.4,65.0,60.9,62.2,58.4,53.9,86,79,70,30.12,30.01,11,1,11,0.00
2013-10-11,80.2,70.2,60.9,63.9,59.6,29.0,87,71,44,30.15,30.05,14,1,14,0.00
2013-10-12,82.2,72.5,64.5,68.2,63.5,59.9,87,75,49,30.17,30.09,11,1,11,0.00
2013-10-13,80.7,73.2,66.0,65.1,60.6,55.1,85,66,48,30.13,30.06,16,3,16,0.00
2013-10-14,80.0,72.8,67.1,59.4,55.4,51.7,72,55,39,30.11,30.04,15,4,15,0.00
2013-10-15,78.4,70.8,64.5,63.8,59.7,54.2,83,68,56,30.10,29.93,15,2,15,0.00
2013-10-16,70.8,68.3,64.9,65.2,62.2,60.0,87,81,74,29.94,29.55,10,1,10,0.24
2013-10-17,71.4,66.0,61.7,64.6,51.7,40.2,88,62,37,29.71,29.47,19,3,19,0.04
2013-10-18,75.3,67.6,61.8,54.1,48.9,30.0,67,52,20,29.99,29.70,16,3,16,0.04
2013-10-19,73.0,67.2,61.7,51.4,45.1,41.4,64,45,33,30.29,29.98,18,4,18,0.00
2013-10-20,70.7,63.4,58.1,51.8,47.3,44.0,73,57,39,30.35,30.28,20,4,20,0.00
2013-10-21,72.8,64.2,56.6,53.7,47.3,42.6,72,55,38,30.28,30.15,8,2,8,0.00
2013-10-22,74.8,65.8,57.7,57.1,53.7,51.1,83,66,44,30.16,30.07,9,1,9,0.00
2013-10-23,76.8,68.0,58.8,54.9,51.1,45.4,71,55,45,30.16,30.09,22,4,22,0.00
2013-10-24,73.9,68.5,63.3,52.8,49.4,42.9,66,51,39,30.17,30.10,19,4,19,0.00
2013-10-25,73.9,65.3,57.0,49.3,45.4,40.3,64,49,33,30.12,30.06,16,2,16,0.00
2013-10-26,74.3,64.3,55.4,43.8,39.7,34.1,55,41,28,30.14,30.09,12,1,12,0.00
2013-10-27,75.9,64.8,54.6,56.3,43.7,31.6,77,48,27,30.12,30.04,10,1,10,0.06
2013-10-28,74.4,64.9,56.4,57.7,53.1,28.5,82,67,41,30.07,30.01,10,1,10,0.00
2013-10-29,75.9,66.0,56.8,57.8,53.9,47.7,85,67,38,30.03,29.94,8,1,8,0.00
2013-10-30,77.1,67.2,59.0,57.2,52.9,47.1,83,62,35,30.03,29.96,16,1,16,0.00
2013-10-31,74.8,66.9,60.0,53.6,50.2,44.9,70,56,44,30.11,30.02,19,3,19,0.00
2013-11-1,71.4,65.0,60.4,51.9,50.1,27.0,71,59,47,30.15,30.08,19,4,19,0.00
2013-11-2,69.9,62.5,55.9,54.5,51.3,48.1,78,67,51,30.12,30.03,7,1,7,0.00
2013-11-3,71.4,64.2,57.2,59.8,56.4,52.5,87,77,59,30.07,29.99,10,1,10,0.00
2013-11-4,73.0,65.7,59.1,60.4,57.6,55.2,88,76,58,30.02,29.90,12,2,12,0.00
2013-11-5,73.2,67.7,62.4,61.6,58.8,25.5,87,74,20,29.90,29.68,20,4,20,0.00
2013-11-6,68.7,62.2,59.1,58.2,56.7,54.5,90,83,62,29.69,29.54,20,3,20,1.16
2013-11-7,67.8,62.6,58.6,59.1,50.9,38.2,87,67,40,30.07,29.63,20,3,20,0.00
2013-11-8,71.2,62.6,54.6,52.5,47.3,39.5,74,58,42,30.12,30.05,10,1,10,0.00
2013-11-9,71.2,62.6,55.9,56.7,52.1,46.9,85,69,49,30.08,29.98,8,1,8,0.00
2013-11-10,69.6,62.5,55.4,58.8,55.8,51.7,88,79,65,29.98,29.83,9,1,9,0.00
2013-11-11,70.3,64.3,59.9,62.9,59.4,21.8,92,84,20,29.95,29.79,20,3,20,0.84
2013-11-12,69.0,65.3,61.8,63.1,60.9,57.2,91,86,76,30.04,29.94,16,4,16,0.10
2013-11-13,68.3,62.3,59.1,58.4,55.3,52.8,88,78,62,30.04,29.91,22,6,22,0.10
2013-11-14,61.7,58.7,56.8,55.2,53.8,52.2,91,84,76,29.94,29.83,18,5,18,0.63
2013-11-15,64.2,58.8,55.7,53.3,51.4,49.6,84,77,63,30.08,29.85,18,4,18,0.63
2013-11-16,59.7,56.9,55.5,51.7,49.3,41.4,83,76,54,30.14,30.06,23,6,23,0.63
2013-11-17,60.9,56.2,52.1,47.2,43.8,41.2,73,63,51,30.14,30.06,21,4,21,0.00
2013-11-18,60.9,55.0,49.8,46.8,44.4,41.9,78,68,55,30.11,30.05,18,3,18,0.00
2013-11-19,62.0,57.0,52.1,52.1,47.4,19.3,79,70,58,30.11,29.99,11,2,11,0.63
2013-11-20,66.7,61.7,58.8,61.6,57.4,52.3,92,86,79,29.99,29.83,17,2,17,0.20
2013-11-21,68.1,61.7,56.1,58.7,55.2,52.3,91,80,63,29.86,29.71,20,2,20,0.53
2013-11-22,65.4,59.2,55.2,55.3,52.2,49.3,91,78,58,29.77,29.66,12,1,12,0.02
2013-11-23,66.5,59.5,53.7,57.8,53.5,49.3,90,81,67,29.78,29.70,19,2,19,0.08
2013-11-24,63.1,57.8,55.4,57.5,53.9,18.4,92,87,20,29.75,29.63,14,1,14,1.63
2013-11-25,63.5,56.7,51.6,53.2,50.0,15.8,92,79,20,29.70,29.65,10,1,10,1.51
2013-11-26,64.0,56.5,51.9,54.3,50.2,47.2,88,80,57,29.75,29.65,11,1,11,0.04
2013-11-27,60.9,55.0,49.8,50.3,41.9,23.3,88,63,8,30.16,29.73,16,2,16,1.51
2013-11-28,140.0,51.7,46.7,99.9,39.6,36.4,79,64,47,30.27,30.16,14,2,14,1.51
2013-11-29,58.2,50.5,44.0,44.3,40.8,36.8,79,70,54,30.18,30.05,8,1,8,0.00
2013-11-30,54.1,51.5,47.6,52.1,45.2,41.4,93,79,70,30.11,30.01,14,3,14,0.10
2013-12-1,61.8,57.7,51.6,57.3,52.9,19.2,88,84,80,30.04,29.90,22,5,22,0.06
2013-12-2,60.6,58.0,55.7,56.6,54.0,51.0,92,86,81,30.06,29.92,21,6,21,0.74
2013-12-3,55.9,48.6,42.6,51.5,41.2,32.0,85,76,66,30.15,30.02,39,12,47,0.02
2013-12-4,104.0,45.6,42.6,87.4,36.0,17.2,81,69,32,30.10,30.00,22,4,22,0.02
2013-12-5,56.3,47.3,39.9,37.9,34.2,30.7,82,62,38,30.05,29.99,6,1,6,0.00
2013-12-6,57.5,48.8,40.2,41.6,36.6,32.0,77,63,44,30.04,29.83,12,1,12,0.02
2013-12-7,56.8,49.7,46.0,48.5,39.0,28.1,88,68,49,30.18,29.81,18,3,18,0.02
2013-12-8,50.9,46.2,42.0,30.5,27.5,24.5,63,49,37,30.38,30.18,17,2,17,0.00
2013-12-9,55.5,47.4,39.3,39.4,32.4,26.6,76,57,33,30.38,30.13,17,1,17,0.00
2013-12-10,57.3,49.7,43.8,42.1,38.7,33.5,84,67,46,30.34,30.09,20,3,20,0.08
2013-12-11,45.3,42.5,40.1,33.5,25.5,20.4,64,51,38,30.48,30.34,25,7,25,0.00
2013-12-12,49.6,43.8,37.4,36.0,29.7,23.4,69,58,38,30.41,30.21,12,2,12,0.00
2013-12-13,48.7,46.4,44.2,41.1,39.0,36.0,80,75,68,30.22,30.12,12,2,12,0.00
2013-12-14,55.2,47.5,40.2,43.9,39.1,35.5,83,73,53,30.34,30.16,6,1,6,0.00
2013-12-15,58.6,51.7,45.6,49.7,45.5,41.0,86,80,68,30.34,30.28,6,1,6,0.00
2013-12-16,54.3,51.2,48.5,47.2,44.3,39.2,87,77,65,30.36,30.27,17,5,17,0.00
2013-12-17,49.8,47.4,45.1,41.7,39.1,36.3,79,73,63,30.40,30.31,20,5,20,0.00
2013-12-18,50.3,47.0,43.7,40.5,38.5,36.3,77,72,65,30.31,30.20,16,2,16,0.00
2013-12-19,52.5,48.2,45.3,41.8,38.4,35.7,81,69,56,30.26,30.20,13,2,13,0.00
2013-12-20,53.9,47.8,41.5,40.6,37.5,33.8,77,68,51,30.43,30.25,9,2,9,0.00
2013-12-21,55.9,48.4,41.3,44.9,40.0,35.5,85,73,58,30.48,30.42,4,1,4,0.00
2013-12-22,58.4,49.6,43.3,41.1,37.3,33.0,74,63,21,30.47,30.35,18,2,18,0.00
2013-12-23,55.9,49.7,44.7,43.4,40.5,36.4,79,71,56,30.35,30.26,11,2,11,0.00
2013-12-24,52.5,50.1,48.3,45.7,43.6,41.4,82,78,75,30.30,30.15,18,3,18,0.00
2013-12-25,58.6,53.6,50.5,51.5,48.7,45.7,87,83,74,30.19,30.04,16,5,16,0.08
2013-12-26,60.4,55.9,51.4,53.3,50.9,47.4,88,83,75,30.04,29.83,13,2,13,0.02
2013-12-27,58.4,55.4,51.9,53.1,51.3,49.3,92,86,74,29.84,29.76,20,3,20,1.20
2013-12-28,57.9,53.4,51.0,51.4,49.0,44.0,91,85,75,29.90,29.78,21,5,21,0.08
2013-12-29,60.4,53.5,48.9,48.7,44.4,41.0,81,72,56,30.05,29.88,18,1,18,0.08
2013-12-30,59.7,52.3,45.6,45.3,42.7,40.0,82,70,53,30.09,30.04,12,1,12,0.00
2013-12-31,51.6,49.0,46.9,44.0,41.1,39.4,78,74,70,30.17,30.07,20,5,20,0.00
2014-1-1,49.2,47.8,46.9,44.1,41.8,39.6,87,80,71,30.13,30.04,22,5,22,0.22
2014-1-2,55.4,51.2,48.0,46.4,44.0,41.3,86,77,69,30.09,30.02,18,4,18,0.02